SCP
0 0 0 0 0 0 0 0 0 0 0 0 0 0 0 0 0 0 0 0 0 0 0 0 0 0 0 0 0 0 0 1 1 0 0 0 0 0
0 0 0 0 0 0 0 0 0 0 0 0 0 0 0 0 0 0 0 0 0 0 0 0 0 0 0 0 0 0 0 0 0 0 0 0 0 0
0 0 0 0 0 0 0 0 0 0 0 0 0 0 0 0 0 0 0 0 0 0 0 0 0 0 0 0 0 0 0 0 0 0 0 0 0 0
0 0 0 0 0 0 0 0 0 0 0 0 0 0 0 0 0 0 0 0 0 0 0 0 0 0 0 0 0 0 0 0 0 0 0 0 0 0
0 0 0 0 0 0 0 0 0 0 0 0 0 0 0 0 0 0 0 0 0 0 0 0 0 0 0 0 0 0 0 0 0 0 0 0 0 0
0 0 0 0 0 0 0 0 0 0 0 0 0 0 0 0 0 0 0 0 0 0 0 0 0 0 0 0 0 0 0 0 0 0 0 0 0 0
0 0 0 0 0 0 0 0 0 0 0 0 0 0 0 0 0 0 0 0 0 0 0 0 0 0 0 0 0 0 0 0 0 0 0 0 0 0
0 0 0 0 0 0 0 0 0 0 0 0 0 0 0 0 0 0 0 0 0 0 0 0 0 0 0 0 0 0 0 0 0 0 0 0 0 0
0 0 0 0 0 0 0 0 0 0 0 0 0 0 0 0 0 0 0 0 0 0 0 0 0 0 0 0 0 0 0 0 0 0 0 0 0 0
0 0 0 0 0 0 0 0 0 0 0 0 0 0 0 0 0 0 0 0 0 0 0 0 0 0 0 0 0 0 0 0 0 0 0 0 0 0
0 0 0 0 0 0 0 0 0 0 0 0 0 0 0 0 0 0 0 0 0 0 0 0 0 0 0 0 0 0 0 0 0 0 0 0 0 0
0 0 0 0 0 0 0 0 0 0 0 0 0 0 0 0 0 0 0 0 0 0 0 0 0 0 0 0 0 0 0 0 0 0 0 0 0 0
0 0 0 0 0 0 0 0 0 0 0 0 0 0 0 0 0 0 0 0 0 0 0 0 0 0 0 0 0 0 0 0 0 0 0 0 0 0
0 0 0 0 0 0 0 0 0 0 0 0 0 0 0 0 0 0 0 0 0 0 0 0 0 0 0 0 0 0 0 0 0 0 0 0 0 0
0 0 0 0 0 0 0 0 0 0 0 0 0 0 0 0 0 0 0 0 0 0 0 0 0 0 0 0 0 0 0 0 0 0 0 0 0 0
0 0 0 0 0 0 0 0 0 0 0 0 0 0 0 0 0 0 0 0 0 0 0 0 0 0 0 0 0 0 0 0 0 0 0 0 0 0
0 0 0 0 0 0 0 0 0 0 0 0 0 0 0 0 0 0 0 0 0 0 0 0 0 0 0 0 0 0 0 0 0 0 0 0 0 0
0 0 0 0 0 0 0 0 0 0 0 0 0 0 0 0 0 0 0 0 0 0 0 0 0 0 0 0 0 0 0 0 0 0 0 0 0 0
0 0 0 0 0 0 0 0 0 0 0 0 0 0 0 0 0 0 0 0 0 0 0 0 0 0 0 0 0 0 0 0 0 0 0 0 0 0
0 0 0 0 0 0 0 0 0 0 0 0 0 0 0 0 0 0 0 0 0 0 0 0 0 0 0 0 0 0 0 0 0 0 0 0 0 0
0 0 0 0 0 0 0 0 0 0 0 0 0 0 0 0 0 0 0 0 0 0 0 0 0 0 0 0 0 0 0 0 0 0 0 0 0 0
0 0 0 0 0 0 0 0 0 0 0 0 0 0 0 0 0 0 0 0 0 0 0 0 0 0 0 0 0 0 0 0 0 0 0 0 0 0
0 0 0 0 0 0 0 0 0 0 0 0 0 0 0 0 0 0 0 0 0 0 0 0 0 0 0 0 0 0 0 0 0 0 0 0 0 0
Wind_Speed
2 2 1 1 1 2 3 3 5 10 10 7 5 5 7 7 12 11 11 16 21 21 21 21 21 22 22 23 23 23 23 22 22 22 21 21 20 19
2 2 2 2 3 2 3 3 5 7 9 6 7 9 10 10 15 13 12 20 21 21 21 21 21 21 22 23 23 23 23 23 23 23 23 22 21 20
4 4 4 4 3 4 4 4 5 5 10 10 8 9 11 13 13 12 12 12 12 19 21 21 21 21 21 22 22 22 23 22 22 23 24 24 23 22
4 5 6 5 6 5 5 6 6 7 8 13 11 10 12 12 13 13 11 10 10 16 20 21 22 21 21 21 21 20 19 19 20 21 22 23 23 22
5 6 7 7 7 7 7 7 7 7 7 10 12 10 9 10 11 11 12 10 10 12 16 18 20 20 20 19 18 17 16 16 18 19 20 21 21 21
6 6 7 7 9 9 8 8 8 8 9 9 10 10 9 9 8 8 9 8 9 10 12 14 16 19 20 19 19 19 16 16 17 17 18 18 18 17
8 8 8 11 12 9 8 8 8 8 8 8 9 9 9 8 8 7 9 8 9 9 8 9 9 9 10 14 17 18 17 15 15 16 16 16 16 15
9 9 9 10 11 14 15 15 14 11 10 9 8 10 11 10 8 8 8 8 6 4 5 8 7 9 9 8 13 16 16 15 15 15 15 15 15 15
8 9 8 8 11 9 12 15 15 16 15 11 11 11 11 10 10 9 8 8 8 6 6 8 7 8 7 8 13 14 14 14 13 13 13 14 15 15
9 9 9 10 9 10 11 11 11 11 12 9 9 10 10 9 9 8 8 8 8 7 6 6 5 6 7 6 9 12 12 12 12 11 12 13 14 14
10 9 9 9 12 13 11 11 12 11 11 12 13 12 13 13 10 6 6 6 6 6 3 3 4 5 6 5 5 7 9 9 10 10 11 11 12 12
9 9 11 11 14 14 10 9 10 10 11 11 10 10 9 9 9 6 5 6 5 4 2 3 4 4 4 3 3 3 4 5 7 9 10 11 11 8
8 8 8 13 15 15 11 8 10 11 9 9 8 7 7 6 6 5 5 5 5 4 3 4 4 3 4 4 4 3 2 2 2 4 7 9 11 9
7 7 8 14 15 13 10 11 13 10 6 6 6 6 6 6 6 6 6 5 5 6 6 5 3 4 4 4 4 3 3 2 2 2 3 6 8 9
7 12 13 13 12 9 10 13 10 6 6 6 6 6 5 6 6 6 6 6 5 4 5 5 4 4 4 3 3 3 3 2 1 2 3 3 4 5
8 10 12 11 9 9 9 8 6 6 6 6 6 6 5 5 5 5 4 5 5 4 5 6 5 5 4 4 3 3 2 2 1 2 3 3 3 4
8 5 5 7 7 7 7 7 6 6 6 5 5 6 6 6 5 5 5 5 5 6 7 7 6 3 2 6 4 4 4 2 2 3 3 4 4 3
6 5 6 7 7 7 7 7 6 7 6 6 5 5 6 6 6 5 5 6 6 7 7 8 8 6 3 4 11 7 6 5 5 6 5 5 5 4
5 5 6 7 7 7 7 7 7 7 6 5 5 5 5 6 6 6 7 6 6 7 7 8 8 8 8 8 10 16 8 7 7 8 8 7 7 6
5 6 6 7 7 7 7 7 7 7 6 6 5 5 5 5 5 6 7 8 7 7 8 8 9 9 8 6 6 11 18 10 8 9 9 8 8 10
6 6 6 7 7 7 7 7 7 6 6 6 5 6 6 5 6 6 6 9 8 8 8 9 9 11 6 5 7 11 14 20 18 9 6 7 8 8
6 6 7 7 7 7 7 7 7 6 7 6 5 5 5 5 6 8 7 7 7 8 8 8 9 9 10 11 11 12 12 13 18 26 25 17 7 6
6 6 6 7 7 7 7 8 8 6 6 6 5 5 5 5 6 6 7 7 7 8 8 8 8 9 10 10 10 11 14 14 12 14 16 22 25 23
Wind_Direction
31 19 341 307 292 265 251 247 278 296 296 284 274 275 279 280 278 281 275 278 285 285 283 281 279 276 275 273 271 268 267 265 262 258 257 254 250 246
20 9 345 316 311 298 283 271 258 276 290 288 283 283 284 286 287 286 281 284 285 284 282 279 276 275 273 272 269 266 264 261 258 255 253 250 247 244
10 354 333 319 307 303 294 285 275 270 285 295 287 285 282 282 286 285 282 279 276 277 278 277 276 274 272 271 270 267 264 262 259 255 251 247 244 241
348 334 323 319 307 298 291 286 281 272 279 296 299 295 286 283 283 283 284 281 277 278 278 278 276 274 271 269 268 266 263 261 260 257 253 248 243 239
326 317 312 311 304 299 293 286 283 284 279 288 296 294 290 287 288 284 284 281 280 279 278 276 275 274 272 270 266 264 259 254 253 251 250 248 244 239
320 310 305 299 291 292 291 289 290 291 290 289 292 295 293 289 285 289 291 286 284 284 280 277 275 276 274 272 267 264 258 250 245 244 241 238 234 233
322 315 308 304 305 308 309 307 304 298 296 293 294 296 295 298 296 290 290 291 285 277 279 280 278 272 271 269 268 265 263 254 246 240 234 228 224 222
319 318 313 307 312 315 313 312 309 304 303 297 298 299 301 299 295 294 294 295 291 272 277 283 277 272 268 259 258 258 256 255 249 239 228 220 217 216
313 313 312 311 314 308 310 312 307 301 297 297 297 299 300 302 298 295 293 295 292 290 287 286 281 277 273 265 263 258 253 249 245 239 227 218 214 211
312 307 306 309 312 318 317 310 306 303 299 295 288 292 294 296 295 294 295 293 286 282 277 281 286 285 285 274 264 259 255 248 242 237 227 217 210 206
318 316 315 315 315 319 319 312 310 309 309 301 294 291 292 293 295 297 297 301 305 303 298 284 290 295 290 282 276 269 260 250 240 232 222 212 205 201
320 320 319 317 317 320 317 310 311 315 316 316 313 308 304 302 303 297 298 300 303 298 308 305 289 300 295 287 290 291 274 254 239 228 218 206 194 191
318 319 317 318 319 319 317 307 304 309 309 311 312 311 312 312 313 309 296 291 295 287 298 302 287 285 279 294 296 288 275 266 238 218 209 197 187 183
313 313 312 316 320 321 321 317 318 319 315 319 321 321 323 326 322 316 307 297 284 286 297 303 285 292 292 286 289 298 290 259 228 203 186 179 183 182
315 315 320 325 328 326 323 325 328 328 327 330 333 334 329 326 325 323 322 321 309 301 308 306 309 308 296 288 293 292 297 290 225 187 166 164 165 167
327 322 323 326 331 327 327 330 333 330 332 337 338 333 332 337 343 342 336 339 340 336 333 335 329 336 340 325 312 314 309 315 353 125 132 131 140 150
322 325 338 340 343 342 339 338 339 345 347 349 348 350 351 354 354 349 351 355 4 2 359 352 342 327 11 6 350 352 1 24 47 81 99 99 99 111
342 343 341 340 338 338 341 343 346 352 352 351 353 358 2 4 5 5 8 14 18 14 10 2 357 2 7 42 20 10 24 38 53 63 72 79 73 69
356 345 341 337 338 342 345 346 345 345 348 353 358 2 4 8 11 15 16 18 22 20 17 11 11 16 30 28 18 19 31 46 56 60 59 62 64 59
350 343 340 338 340 344 345 343 342 345 351 357 3 6 9 10 18 23 24 23 24 24 24 21 20 18 24 21 19 27 33 41 53 62 65 68 68 69
346 344 340 339 340 341 341 342 342 343 348 353 4 9 13 19 26 29 30 26 29 31 33 28 15 11 24 41 53 48 44 46 53 52 50 64 64 62
344 342 339 340 339 339 340 342 344 347 350 356 2 11 20 32 38 39 38 37 36 38 40 34 26 32 43 52 54 50 49 49 53 55 52 54 60 60
341 338 337 339 341 340 341 342 345 347 351 355 1 13 27 39 46 49 48 47 47 47 46 44 42 45 47 50 54 53 52 52 54 58 59 61 71 77